Torna al catalogo

STARLINK-5731

AttivoComunicazioniVLEO
NORAD 56924·PAYLOAD·🇺🇸 United States

Lanciato Jun 12, 2023 da Cape Canaveral Space Force Station

Loading…

Prossimi Passaggi (prossime 24 ore)

TLE

AggiornatoSource: CelesTrak SupGP

Epoca: Sep 14, 2026, 21:29 UTC

1 56924C 23083BA  26257.89562500  .00034601  00000+0  12533-2 0  2575
2 56924  43.0037  82.3728 0001952 275.5024  26.9085 15.27559764    19

Traccia STARLINK-5731 in tempo reale con AllMySat

Download on the App Store